Weather History for Fort Myers, FL

Change the Weather History Date:

Tuesday, January 8, 2013

  Actual Average Record
Temperature  
Mean Temperature 75 °F 64 °F  
Max Temperature 85 °F 74 °F 86 °F (1989)
Min Temperature 64 °F 54 °F 37 °F (1958)
Degree Days  
Heating Degree Days 0 4  
Month to date heating degree days 0 32  
Since 1 July heating degree days 58 125  
Cooling Degree Days 10 3  
Month to date cooling degree days 50 24  
Year to date cooling degree days 50 24  
Growing Degree Days 24 (Base 50)    
Moisture  
Dew Point 66 °F    
Average Humidity 85    
Maximum Humidity 100    
Minimum Humidity 48    
Precipitation  
Precipitation 0.00 in 0.06 in 1.44 in (1945)
Month to date precipitation 0.46 0.50  
Year to date precipitation 0.46 0.50  
Sea Level Pressure  
Sea Level Pressure 30.14 in    
Wind  
Wind Speed 7 mph (East)    
Max Wind Speed 17 mph    
Max Gust Speed 23 mph    
Visibility 8 miles    
Events Fog    
T = Trace of Precipitation, MM = Missing Value Source: NWS Daily Summary

Daily Weather History Graph

Daily Weather History Graph

Search for Another Location

Airport:

Trip Planner

Search our weather history database for the weather conditions in past years. The results will help you decide how hot, cold, wet, or windy it might be!

Date:

Astronomy

Jan. 08, 2013 Rise Set
Actual Time 7:17 AM EST 5:51 PM EST
Civil Twilight 6:52 AM EST 6:16 PM EST
Nautical Twilight 6:23 AM EST 6:45 PM EST
Astronomical Twilight 5:55 AM EST 7:13 PM EST
Moon 3:50 AM EST (1/8) 2:51 PM EST (1/8)
Length of Visible Light 11h 24m
Length of Day
10h 34m
Waning Crescent, 14% of the Moon is Illuminated
Jan 8
Waning Crescent
Jan 11
New
Jan 18
First Quarter
Jan 26
Full
Feb 3
Last Quarter

Hourly Weather History & Observations

Time (EST) Temp. Heat Index Dew Point Humidity Pressure Visibility Wind Dir Wind Speed Gust Speed Precip Events Conditions
12:21 AM 66.2 °F - 62.6 °F 88% 30.12 in 10.0 mi ENE 5.8 mph - N/A   Partly Cloudy
12:53 AM 64.9 °F - 63.0 °F 93% 30.12 in 10.0 mi ENE 3.5 mph - N/A   Clear
1:53 AM 64.0 °F - 63.0 °F 96% 30.12 in 10.0 mi NE 4.6 mph - N/A   Clear
2:53 AM 64.9 °F - 63.0 °F 93% 30.11 in 10.0 mi ENE 6.9 mph - N/A   Partly Cloudy
3:53 AM 64.0 °F - 63.0 °F 96% 30.11 in 10.0 mi ENE 5.8 mph - N/A   Clear
4:53 AM 64.0 °F - 63.0 °F 96% 30.10 in 9.0 mi ENE 4.6 mph - N/A   Partly Cloudy
5:16 AM 64.4 °F - 62.6 °F 94% 30.11 in 8.0 mi NNE 4.6 mph - N/A   Mostly Cloudy
5:53 AM 64.9 °F - 64.0 °F 97% 30.13 in 5.0 mi NE 5.8 mph - N/A   Overcast
6:02 AM 64.4 °F - 64.4 °F 100% 30.12 in 2.5 mi NE 5.8 mph - N/A   Overcast
6:12 AM 64.4 °F - 64.4 °F 100% 30.12 in 1.0 mi ENE 5.8 mph - N/A   Overcast
6:53 AM 64.9 °F - 64.9 °F 100% 30.14 in 0.5 mi East 5.8 mph - N/A Fog Fog
7:53 AM 66.0 °F - 64.9 °F 96% 30.16 in 0.5 mi ENE 5.8 mph - N/A Fog Fog
8:28 AM 66.2 °F - 66.2 °F 100% 30.18 in 1.2 mi NNE 4.6 mph - N/A   Overcast
8:53 AM 66.9 °F - 66.9 °F 100% 30.19 in 1.0 mi ENE 5.8 mph - N/A   Overcast
9:04 AM 68.0 °F - 66.2 °F 94% 30.19 in 2.5 mi ENE 4.6 mph - N/A   Overcast
9:11 AM 68.0 °F - 66.2 °F 94% 30.19 in 5.0 mi East 6.9 mph - N/A   Overcast
9:32 AM 69.8 °F - 68.0 °F 94% 30.20 in 5.0 mi East 5.8 mph - N/A   Overcast
10:14 AM 73.4 °F - 69.8 °F 88% 30.19 in 10.0 mi East 6.9 mph - N/A   Scattered Clouds
10:53 AM 77.0 °F - 69.1 °F 76% 30.19 in 10.0 mi ESE 8.1 mph - N/A   Scattered Clouds
11:53 AM 81.0 °F 83.3 °F 66.9 °F 62% 30.17 in 10.0 mi SE 10.4 mph - N/A   Partly Cloudy
12:53 PM 82.0 °F 84.1 °F 66.0 °F 58% 30.14 in 10.0 mi ESE 9.2 mph - N/A   Scattered Clouds
1:53 PM 82.9 °F 84.6 °F 64.9 °F 54% 30.12 in 10.0 mi SE 8.1 mph - N/A   Partly Cloudy
2:53 PM 84.0 °F 84.9 °F 63.0 °F 49% 30.11 in 10.0 mi SE 8.1 mph - N/A   Partly Cloudy
3:53 PM 82.9 °F 84.6 °F 64.9 °F 54% 30.11 in 10.0 mi East 13.8 mph 18.4 mph N/A   Partly Cloudy
4:53 PM 81.0 °F 83.3 °F 66.9 °F 62% 30.11 in 10.0 mi ENE 8.1 mph - N/A   Clear
5:53 PM 75.9 °F - 69.1 °F 79% 30.12 in 10.0 mi East 6.9 mph - N/A   Scattered Clouds
6:53 PM 73.9 °F - 69.1 °F 85% 30.14 in 10.0 mi East 4.6 mph - N/A   Partly Cloudy
7:53 PM 73.9 °F - 69.1 °F 85% 30.14 in 10.0 mi East 5.8 mph - N/A   Mostly Cloudy
8:53 PM 73.9 °F - 69.1 °F 85% 30.15 in 10.0 mi East 4.6 mph - N/A   Overcast
9:53 PM 73.9 °F - 69.1 °F 85% 30.15 in 10.0 mi ESE 8.1 mph - N/A   Mostly Cloudy
10:53 PM 73.0 °F - 69.1 °F 87% 30.17 in 10.0 mi East 6.9 mph - N/A   Clear
11:53 PM 72.0 °F - 69.1 °F 91% 30.17 in 9.0 mi East 5.8 mph - N/A   Clear